Location: Hamburg
(53.5500°N, 10.0000°E)
Time: 23:35:07
(UTC+02:00)

Vanguard 1 Rocket - Visible Passes

Search period start: 21 August 2017 00:00
Search period end: 31 August 2017 00:00
Orbit: 653 x 4224 km, 34.3° (Epoch: 20 August)

Date Brightness Start Highest point End Pass type
(mag) Time Alt. Az. Time Alt. Az. Time Alt. Az.
21 Aug 10.2 01:12:02 10° WSW 01:33:00 40° S 01:46:21 10° ESE visible
21 Aug 10.0 03:43:30 10° WSW 03:59:18 30° SSW 04:09:04 10° SSE visible
21 Aug 11.0 21:33:34 10° S 21:52:09 26° SE 22:07:57 10° E visible
21 Aug 10.4 23:58:16 10° SW 00:20:12 39° S 00:35:25 10° ESE visible
22 Aug 10.1 02:28:23 10° WSW 02:47:39 37° SSW 02:59:29 10° SE visible
22 Aug 10.2 05:01:43 10° W 05:12:22 20° SW 05:19:48 10° S visible
22 Aug 10.6 22:45:29 10° SW 23:07:06 36° SSE 23:23:48 10° ESE visible
23 Aug 10.2 01:13:44 10° WSW 01:35:18 41° S 01:49:13 10° ESE visible
23 Aug 10.1 03:45:44 10° W 04:01:30 29° SSW 04:11:32 10° SSE visible
23 Aug 10.9 21:33:58 10° SSW 21:54:01 31° SSE 22:11:19 10° E visible
23 Aug 10.4 23:59:46 10° SW 00:22:23 42° S 00:38:21 10° ESE visible
24 Aug 10.1 02:30:23 10° WSW 02:49:53 36° SSW 03:02:09 10° SE visible
24 Aug 10.4 05:04:43 10° W 05:14:21 17° SW 05:21:26 10° SSW visible
24 Aug 10.6 22:46:45 10° SW 23:09:08 40° SSE 23:26:46 10° ESE visible
25 Aug 10.3 01:15:35 10° WSW 01:37:32 42° S 01:51:59 10° SE visible
25 Aug 10.2 03:48:05 10° W 04:03:33 26° SW 04:13:46 10° SSE visible
25 Aug 10.9 21:34:51 10° SSW 21:55:51 35° SSE 22:14:24 10° E visible
26 Aug 10.4 00:01:29 10° WSW 00:24:32 44° S 00:41:08 10° ESE visible
26 Aug 10.2 02:32:29 10° W 02:51:59 35° SSW 03:04:39 10° SSE visible
26 Aug 10.5 05:08:16 10° W 05:16:09 14° SW 05:22:25 10° SSW visible
26 Aug 11.1 20:24:22 10° S 20:42:53 28° SE 21:00:57 10° E visible
26 Aug 10.6 22:48:17 10° SW 23:11:09 42° SSE 23:29:37 10° ESE visible
27 Aug 10.3 01:17:34 10° WSW 01:39:40 41° SSW 01:54:37 10° SE visible
27 Aug 10.4 03:50:38 10° W 04:05:27 24° SW 04:15:43 10° S visible
27 Aug 10.8 21:36:08 10° SW 21:57:42 38° SSE 22:17:18 10° E visible
28 Aug 10.5 00:03:22 10° WSW 00:26:38 44° S 00:43:50 10° ESE visible
28 Aug 10.3 02:34:43 10° W 02:53:59 33° SSW 03:06:57 10° SSE visible
28 Aug 10.6 05:13:05 10° WSW 05:17:50 11° WSW 05:21:59 10° SW visible
28 Aug 11.0 20:25:13 10° SSW 20:44:32 32° SSE 21:04:02 10° E visible
28 Aug 10.6 22:50:03 10° SW 23:13:09 44° S 23:31:33 12° ESE visible
29 Aug 10.3 01:19:39 10° WSW 01:41:42 40° SSW 01:57:06 10° SE visible
29 Aug 10.5 03:53:27 10° W 04:12:53 17° SSW 04:17:16 10° S visible
29 Aug 10.8 21:37:44 10° SW 21:59:33 41° SSE 22:20:03 10° ESE visible
30 Aug 10.5 00:05:24 10° WSW 00:28:40 44° S 00:38:33 31° SE visible
30 Aug 10.5 02:37:04 10° W 03:08:49 10° SSE 03:09:00 10° SSE visible
30 Aug 11.0 20:26:31 10° SSW 20:46:12 36° SSE 21:06:53 10° E visible
30 Aug 10.7 22:52:01 10° WSW 23:15:09 46° S 23:29:37 23° SE visible
